Time,TemperatureF,DewpointF,PressureIn,WindDirection,WindDirectionDegrees,WindSpeedMPH,WindSpeedGustMPH,Humidity,HourlyPrecipIn,Conditions,Clouds,dailyrainin,SolarRadiationWatts/m^2,SoftwareType,DateUTC
2013-05-10 00:06:00,60.4,58.0,29.84,SSE,168,9.0,-999.0,93,-99.99,,,0.02,0,weatherlink.com 1.10,2013-05-10 04:06:00,
2013-05-10 00:21:00,59.9,58.0,29.82,SE,143,14.0,-999.0,94,-99.99,,,0.09,0,weatherlink.com 1.10,2013-05-10 04:21:00,
2013-05-10 00:36:00,59.9,58.0,29.82,SE,139,13.0,-999.0,94,-99.99,,,0.11,0,weatherlink.com 1.10,2013-05-10 04:36:00,
2013-05-10 00:51:00,59.8,58.0,29.81,SSE,156,7.0,-999.0,94,-99.99,,,0.11,0,weatherlink.com 1.10,2013-05-10 04:51:00,
2013-05-10 01:06:00,59.9,58.0,29.80,SSE,158,9.0,-999.0,94,-99.99,,,0.14,0,weatherlink.com 1.10,2013-05-10 05:06:00,
2013-05-10 01:21:00,59.8,58.0,29.80,SSE,154,8.0,-999.0,95,-99.99,,,0.16,0,weatherlink.com 1.10,2013-05-10 05:21:00,
2013-05-10 01:36:00,60.2,59.0,29.80,South,177,9.0,-999.0,95,-99.99,,,0.17,0,weatherlink.com 1.10,2013-05-10 05:36:00,
2013-05-10 01:51:00,60.7,59.0,29.80,South,178,15.0,-999.0,94,-99.99,,,0.17,0,weatherlink.com 1.10,2013-05-10 05:51:00,
2013-05-10 02:06:00,61.0,59.0,29.80,South,174,12.0,-999.0,94,-99.99,,,0.17,0,weatherlink.com 1.10,2013-05-10 06:06:00,
2013-05-10 02:21:00,61.5,60.0,29.79,South,191,7.0,-999.0,93,-99.99,,,0.17,0,weatherlink.com 1.10,2013-05-10 06:21:00,
2013-05-10 02:36:00,61.8,60.0,29.79,SSW,193,12.0,-999.0,93,-99.99,,,0.17,0,weatherlink.com 1.10,2013-05-10 06:36:00,
2013-05-10 02:51:00,62.1,60.0,29.79,South,173,13.0,-999.0,93,-99.99,,,0.17,0,weatherlink.com 1.10,2013-05-10 06:51:00,
2013-05-10 03:06:00,62.5,60.0,29.78,SW,222,10.0,-999.0,92,-99.99,,,0.17,0,weatherlink.com 1.10,2013-05-10 07:06:00,
2013-05-10 03:21:00,62.3,60.0,29.78,SSW,196,9.0,-999.0,92,-99.99,,,0.17,0,weatherlink.com 1.10,2013-05-10 07:21:00,
2013-05-10 03:36:00,61.9,60.0,29.79,SSW,202,12.0,-999.0,93,-99.99,,,0.17,0,weatherlink.com 1.10,2013-05-10 07:36:00,
2013-05-10 03:51:00,61.8,60.0,29.79,SSW,192,8.0,-999.0,93,-99.99,,,0.17,0,weatherlink.com 1.10,2013-05-10 07:51:00,
2013-05-10 04:06:00,61.8,60.0,29.78,SSW,194,8.0,-999.0,93,-99.99,,,0.17,0,weatherlink.com 1.10,2013-05-10 08:06:00,
2013-05-10 04:21:00,61.7,60.0,29.78,SW,220,11.0,-999.0,93,-99.99,,,0.17,0,weatherlink.com 1.10,2013-05-10 08:21:00,
2013-05-10 04:36:00,61.4,59.0,29.78,SSW,193,7.0,-999.0,93,-99.99,,,0.17,0,weatherlink.com 1.10,2013-05-10 08:36:00,
2013-05-10 04:51:00,61.1,59.0,29.77,SSW,198,7.0,-999.0,94,-99.99,,,0.17,0,weatherlink.com 1.10,2013-05-10 08:51:00,
2013-05-10 05:06:00,60.8,59.0,29.77,South,191,8.0,-999.0,94,-99.99,,,0.17,0,weatherlink.com 1.10,2013-05-10 09:06:00,
2013-05-10 05:21:00,60.7,59.0,29.76,SSW,198,7.0,-999.0,94,-99.99,,,0.17,0,weatherlink.com 1.10,2013-05-10 09:21:00,
2013-05-10 05:36:00,61.4,59.0,29.76,SSW,199,7.0,-999.0,93,-99.99,,,0.17,0,weatherlink.com 1.10,2013-05-10 09:36:00,
2013-05-10 05:51:00,61.9,59.0,29.76,SSW,212,10.0,-999.0,91,-99.99,,,0.17,0,weatherlink.com 1.10,2013-05-10 09:51:00,
2013-05-10 06:06:00,61.8,59.0,29.75,SSW,204,7.0,-999.0,90,-99.99,,,0.17,0,weatherlink.com 1.10,2013-05-10 10:06:00,
2013-05-10 06:21:00,61.8,59.0,29.76,SSW,212,7.0,-999.0,90,-99.99,,,0.17,0,weatherlink.com 1.10,2013-05-10 10:21:00,
2013-05-10 06:36:00,61.9,59.0,29.76,SSW,193,7.0,-999.0,90,-99.99,,,0.17,0,weatherlink.com 1.10,2013-05-10 10:36:00,
2013-05-10 06:51:00,61.9,59.0,29.77,SSW,210,9.0,-999.0,90,-99.99,,,0.17,11,weatherlink.com 1.10,2013-05-10 10:51:00,
2013-05-10 07:06:00,61.9,59.0,29.77,South,191,8.0,-999.0,90,-99.99,,,0.17,19,weatherlink.com 1.10,2013-05-10 11:06:00,
2013-05-10 07:21:00,62.0,59.0,29.77,SSW,208,9.0,-999.0,90,-99.99,,,0.17,46,weatherlink.com 1.10,2013-05-10 11:21:00,
2013-05-10 07:36:00,62.0,59.0,29.77,SSW,211,7.0,-999.0,91,-99.99,,,0.17,67,weatherlink.com 1.10,2013-05-10 11:36:00,
2013-05-10 07:51:00,62.1,59.0,29.77,WSW,253,5.0,-999.0,90,-99.99,,,0.17,63,weatherlink.com 1.10,2013-05-10 11:51:00,
2013-05-10 08:06:00,62.3,59.0,29.78,SSW,211,9.0,-999.0,89,-99.99,,,0.17,63,weatherlink.com 1.10,2013-05-10 12:06:00,
2013-05-10 08:21:00,62.1,59.0,29.78,SW,220,4.0,-999.0,90,-99.99,,,0.17,63,weatherlink.com 1.10,2013-05-10 12:21:00,
2013-05-10 08:36:00,62.1,59.0,29.78,SW,228,9.0,-999.0,89,-99.99,,,0.17,100,weatherlink.com 1.10,2013-05-10 12:36:00,
2013-05-10 08:51:00,62.2,59.0,29.78,SW,222,8.0,-999.0,88,-99.99,,,0.17,183,weatherlink.com 1.10,2013-05-10 12:51:00,
2013-05-10 09:06:00,62.4,59.0,29.78,West,261,11.0,-999.0,88,-99.99,,,0.17,141,weatherlink.com 1.10,2013-05-10 13:06:00,
2013-05-10 09:21:00,62.5,59.0,29.78,West,260,7.0,-999.0,88,-99.99,,,0.17,197,weatherlink.com 1.10,2013-05-10 13:21:00,
2013-05-10 09:36:00,62.6,59.0,29.78,SW,223,6.0,-999.0,88,-99.99,,,0.17,146,weatherlink.com 1.10,2013-05-10 13:36:00,
2013-05-10 09:51:00,62.5,59.0,29.79,WSW,245,5.0,-999.0,88,-99.99,,,0.17,179,weatherlink.com 1.10,2013-05-10 13:51:00,
2013-05-10 10:06:00,62.5,59.0,29.79,WSW,248,5.0,-999.0,87,-99.99,,,0.17,144,weatherlink.com 1.10,2013-05-10 14:06:00,
2013-05-10 10:21:00,62.6,59.0,29.79,SW,236,5.0,-999.0,87,-99.99,,,0.17,118,weatherlink.com 1.10,2013-05-10 14:21:00,
2013-05-10 10:36:00,62.8,59.0,29.79,SW,226,5.0,-999.0,88,-99.99,,,0.17,211,weatherlink.com 1.10,2013-05-10 14:36:00,
2013-05-10 10:51:00,63.4,60.0,29.80,WSW,243,8.0,-999.0,88,-99.99,,,0.17,169,weatherlink.com 1.10,2013-05-10 14:51:00,
2013-05-10 11:06:00,63.5,60.0,29.80,WSW,256,5.0,-999.0,87,-99.99,,,0.17,241,weatherlink.com 1.10,2013-05-10 15:06:00,
2013-05-10 11:21:00,64.1,60.0,29.80,WSW,245,7.0,-999.0,86,-99.99,,,0.17,253,weatherlink.com 1.10,2013-05-10 15:21:00,
2013-05-10 11:36:00,64.9,60.0,29.79,WSW,239,6.0,-999.0,84,-99.99,,,0.17,496,weatherlink.com 1.10,2013-05-10 15:36:00,
2013-05-10 11:51:00,65.6,60.0,29.79,West,272,11.0,-999.0,82,-99.99,,,0.17,220,weatherlink.com 1.10,2013-05-10 15:51:00,
2013-05-10 12:06:00,64.8,59.0,29.80,WSW,250,9.0,-999.0,82,-99.99,,,0.17,211,weatherlink.com 1.10,2013-05-10 16:06:00,
2013-05-10 12:21:00,64.5,60.0,29.79,West,262,3.0,-999.0,84,-99.99,,,0.17,195,weatherlink.com 1.10,2013-05-10 16:21:00,
2013-05-10 12:36:00,64.2,59.0,29.79,WSW,251,5.0,-999.0,84,-99.99,,,0.17,130,weatherlink.com 1.10,2013-05-10 16:36:00,
2013-05-10 12:51:00,64.6,60.0,29.79,SSW,199,11.0,-999.0,85,-99.99,,,0.17,308,weatherlink.com 1.10,2013-05-10 16:51:00,
2013-05-10 13:06:00,64.7,60.0,29.80,SW,215,9.0,-999.0,84,-99.99,,,0.17,295,weatherlink.com 1.10,2013-05-10 17:06:00,
2013-05-10 13:21:00,65.0,60.0,29.79,SSW,194,11.0,-999.0,83,-99.99,,,0.17,304,weatherlink.com 1.10,2013-05-10 17:21:00,
2013-05-10 13:36:00,65.7,60.0,29.79,SW,224,11.0,-999.0,82,-99.99,,,0.17,506,weatherlink.com 1.10,2013-05-10 17:36:00,
2013-05-10 13:51:00,65.8,60.0,29.79,SW,222,8.0,-999.0,80,-99.99,,,0.17,65,weatherlink.com 1.10,2013-05-10 17:51:00,
2013-05-10 14:06:00,62.9,59.0,29.80,West,264,5.0,-999.0,86,-99.99,,,0.17,162,weatherlink.com 1.10,2013-05-10 18:06:00,
2013-05-10 14:21:00,62.6,58.0,29.80,WNW,292,3.0,-999.0,86,-99.99,,,0.17,272,weatherlink.com 1.10,2013-05-10 18:21:00,
2013-05-10 14:36:00,62.8,59.0,29.80,West,261,3.0,-999.0,86,-99.99,,,0.17,294,weatherlink.com 1.10,2013-05-10 18:36:00,
2013-05-10 14:51:00,63.0,58.0,29.80,West,260,10.0,-999.0,84,-99.99,,,0.17,199,weatherlink.com 1.10,2013-05-10 18:51:00,
2013-05-10 15:06:00,63.6,58.0,29.80,West,272,5.0,-999.0,83,-99.99,,,0.17,374,weatherlink.com 1.10,2013-05-10 19:06:00,
2013-05-10 15:21:00,63.5,58.0,29.79,WNW,297,9.0,-999.0,81,-99.99,,,0.17,670,weatherlink.com 1.10,2013-05-10 19:21:00,
2013-05-10 15:36:00,63.3,57.0,29.79,West,272,5.0,-999.0,81,-99.99,,,0.17,489,weatherlink.com 1.10,2013-05-10 19:36:00,
2013-05-10 15:51:00,63.6,57.0,29.78,WNW,285,5.0,-999.0,80,-99.99,,,0.17,392,weatherlink.com 1.10,2013-05-10 19:51:00,
2013-05-10 16:06:00,63.8,58.0,29.77,West,264,4.0,-999.0,80,-99.99,,,0.17,362,weatherlink.com 1.10,2013-05-10 20:06:00,
2013-05-10 16:21:00,65.1,57.0,29.77,West,276,11.0,-999.0,76,-99.99,,,0.17,838,weatherlink.com 1.10,2013-05-10 20:21:00,
2013-05-10 16:36:00,65.4,58.0,29.77,West,267,5.0,-999.0,76,-99.99,,,0.17,814,weatherlink.com 1.10,2013-05-10 20:36:00,
2013-05-10 16:51:00,64.3,56.0,29.77,WNW,290,11.0,-999.0,74,-99.99,,,0.17,381,weatherlink.com 1.10,2013-05-10 20:51:00,
2013-05-10 17:06:00,63.8,56.0,29.77,NW,316,10.0,-999.0,75,-99.99,,,0.17,332,weatherlink.com 1.10,2013-05-10 21:06:00,
2013-05-10 17:21:00,62.2,55.0,29.78,WNW,287,7.0,-999.0,76,-99.99,,,0.17,218,weatherlink.com 1.10,2013-05-10 21:21:00,
2013-05-10 17:36:00,60.7,54.0,29.78,NNW,330,10.0,-999.0,78,-99.99,,,0.17,329,weatherlink.com 1.10,2013-05-10 21:36:00,
2013-05-10 17:51:00,60.4,53.0,29.78,WSW,250,14.0,-999.0,77,-99.99,,,0.17,250,weatherlink.com 1.10,2013-05-10 21:51:00,
2013-05-10 18:06:00,60.2,53.0,29.78,WSW,256,9.0,-999.0,78,-99.99,,,0.17,503,weatherlink.com 1.10,2013-05-10 22:06:00,
2013-05-10 18:21:00,58.7,53.0,29.79,NW,320,9.0,-999.0,80,-99.99,,,0.17,244,weatherlink.com 1.10,2013-05-10 22:21:00,
2013-05-10 18:36:00,56.2,50.0,29.80,NW,305,9.0,-999.0,81,-99.99,,,0.17,178,weatherlink.com 1.10,2013-05-10 22:36:00,
2013-05-10 18:51:00,54.7,49.0,29.80,NNW,330,14.0,-999.0,82,-99.99,,,0.17,107,weatherlink.com 1.10,2013-05-10 22:51:00,
2013-05-10 19:06:00,53.5,49.0,29.81,NNW,332,10.0,-999.0,83,-99.99,,,0.17,35,weatherlink.com 1.10,2013-05-10 23:06:00,
2013-05-10 19:21:00,52.5,48.0,29.82,NW,312,10.0,-999.0,83,-99.99,,,0.17,86,weatherlink.com 1.10,2013-05-10 23:21:00,
2013-05-10 19:36:00,51.5,47.0,29.82,North,354,7.0,-999.0,85,-99.99,,,0.17,26,weatherlink.com 1.10,2013-05-10 23:36:00,
2013-05-10 19:51:00,51.1,47.0,29.83,NNW,332,9.0,-999.0,86,-99.99,,,0.17,23,weatherlink.com 1.10,2013-05-10 23:51:00,
2013-05-10 20:06:00,50.8,47.0,29.83,NW,314,8.0,-999.0,86,-99.99,,,0.17,16,weatherlink.com 1.10,2013-05-11 00:06:00,
2013-05-10 20:21:00,50.4,46.0,29.84,NW,321,11.0,-999.0,86,-99.99,,,0.17,9,weatherlink.com 1.10,2013-05-11 00:21:00,
2013-05-10 20:36:00,50.0,46.0,29.84,WNW,291,3.0,-999.0,87,-99.99,,,0.17,5,weatherlink.com 1.10,2013-05-11 00:36:00,
2013-05-10 20:51:00,49.7,46.0,29.85,NW,326,8.0,-999.0,87,-99.99,,,0.17,0,weatherlink.com 1.10,2013-05-11 00:51:00,
2013-05-10 21:06:00,49.2,46.0,29.85,NNW,329,8.0,-999.0,88,-99.99,,,0.17,0,weatherlink.com 1.10,2013-05-11 01:06:00,
2013-05-10 21:21:00,48.6,46.0,29.85,NW,307,8.0,-999.0,89,-99.99,,,0.17,0,weatherlink.com 1.10,2013-05-11 01:21:00,
2013-05-10 21:36:00,48.0,45.0,29.86,WNW,302,13.0,-999.0,89,-99.99,,,0.17,0,weatherlink.com 1.10,2013-05-11 01:36:00,
2013-05-10 21:51:00,48.0,45.0,29.86,NW,324,8.0,-999.0,89,-99.99,,,0.17,0,weatherlink.com 1.10,2013-05-11 01:51:00,
2013-05-10 22:06:00,48.0,45.0,29.87,NW,307,11.0,-999.0,89,-99.99,,,0.17,0,weatherlink.com 1.10,2013-05-11 02:06:00,
2013-05-10 22:21:00,48.1,45.0,29.87,NNW,330,7.0,-999.0,88,-99.99,,,0.17,0,weatherlink.com 1.10,2013-05-11 02:21:00,
2013-05-10 22:36:00,48.0,45.0,29.88,NW,304,3.0,-999.0,89,-99.99,,,0.17,0,weatherlink.com 1.10,2013-05-11 02:36:00,
2013-05-10 22:51:00,47.7,45.0,29.88,NNW,332,8.0,-999.0,89,-99.99,,,0.17,0,weatherlink.com 1.10,2013-05-11 02:51:00,
2013-05-10 23:06:00,47.3,45.0,29.88,NNW,347,8.0,-999.0,90,-99.99,,,0.17,0,weatherlink.com 1.10,2013-05-11 03:06:00,
2013-05-10 23:21:00,47.2,45.0,29.88,NW,306,5.0,-999.0,90,-99.99,,,0.17,0,weatherlink.com 1.10,2013-05-11 03:21:00,
2013-05-10 23:36:00,46.7,44.0,29.88,WNW,293,6.0,-999.0,91,-99.99,,,0.17,0,weatherlink.com 1.10,2013-05-11 03:36:00,
2013-05-10 23:51:00,46.4,44.0,29.88,NW,317,0.0,-999.0,92,-99.99,,,0.17,0,weatherlink.com 1.10,2013-05-11 03:51:00,